Location: Haliburton Scout Reserve
(45.0900°N, 78.3200°W)
Time: 08:40:28
(UTC-04:00)

AO-27 - Visible Passes

Search period start: 18 May 2022 00:00
Search period end: 28 May 2022 00:00
Orbit: 784 x 798 km, 98.9° (Epoch: 18 May)

Date Brightness Start Highest point End Pass type
(mag) Time Alt. Az. Time Alt. Az. Time Alt. Az.
18 May 10.4 21:36:59 10° WSW 21:39:49 15° W 21:42:39 10° NW visible
21 May 10.6 21:50:19 10° WSW 21:51:51 11° W 21:53:23 10° WNW visible
22 May 10.1 21:18:23 10° SW 21:22:16 21° W 21:26:10 10° NW visible
25 May 10.3 21:30:59 10° SW 21:34:15 17° W 21:37:33 10° NW visible
